(221125) = 2005 SM231

Discovered at Mount Lemmon on 2005-09-30 by Mt. Lemmon Survey.

Orbit

Orbit type: Main Belt

Note: WebGL enabled browser required.

epoch2024-03-31.0
epoch JD2460400.5
perihelion date2022-08-06.38292
perihelion JD2459797.88292
argument of perihelion (°)153.50257
ascending node (°)209.90290
inclination (°)2.03884
eccentricity0.0896034
perihelion distance (AU)2.3967871
Tisserand w.r.t. Jupiter3.4
ΔV w.r.t. Earth (km/sec)9.7
semimajor axis (AU)2.6326845
mean anomaly (°)139.04234
mean daily motion (°/day)0.23073080
aphelion distance (AU)2.869
period (years)4.27
P-vector [x]0.99809335
P-vector [y]0.04841070
P-vector [z]0.03828917
Q-vector [x]-0.05911921
Q-vector [y]0.92807647
Q-vector [z]0.36766695
absolute magnitude16.88
phase slope0.15
uncertainty0
referenceMPEC 2024-E73
observations used405
oppositions14
arc length (days)8144
first opposition used2001
last opposition used2024
residual rms (arc-secs)0.68
perturbers coarse indicatorM-v
perturbers precise indicator003Ek
first observation date used2001-11-17.0
last observation date used2024-03-05.0
computer nameMPCLINUX
JD of orbit computation2456552.190062
perihelion JD uncertainty (days)1.0879E-04
argument of perihelion uncertainty (°)9.3077E-05
ascending node uncertainty (°)8.9521E-05
inclination uncertainty (°)3.8241E-06
eccentricity uncertainty 6.5263E-08
perihelion distance uncertainty (AU)1.9035E-07
Minimum Orbit Intersection Distances (in AU)
for orbit epoch: 2460400.5, reference: E2024-E73
Mercury2.03
Venus1.67318
Earth1.39441
Mars0.98364
Jupiter2.52794
Saturn6.38276
Uranus15.5832
Neptune27.3718

Observations

410 total observations over interval: 2001 11 17.37386 – 2024 03 05.176572
These data are available for download (format description).

Date (UT) J2000 RA J2000 Dec Magn Location Ref
2001 11 17.37386 04 56 00.84 +20 39 26.6 21.3 V 691 – Steward Observatory, Kitt Peak-Spacewatch MPS 173926
2001 11 17.39755 04 55 59.55 +20 39 23.3 20.5 V 691 – Steward Observatory, Kitt Peak-Spacewatch MPS 173926
2001 11 17.41965 04 55 58.37 +20 39 20.2 20.6 V 691 – Steward Observatory, Kitt Peak-Spacewatch MPS 173926
2001 11 20.37558 04 53 20.79 +20 32 19.7 20.3   704 – Lincoln Laboratory ETS, New Mexico MPS 173926
2001 11 20.39024 04 53 19.97 +20 32 18.1 20.1   704 – Lincoln Laboratory ETS, New Mexico MPS 173926
2001 11 20.40491 04 53 19.10 +20 32 16.0 20.3   704 – Lincoln Laboratory ETS, New Mexico MPS 173926
2001 11 20.41959 04 53 18.17 +20 32 14.1 20.4   704 – Lincoln Laboratory ETS, New Mexico MPS 173926
2001 11 21.30709 04 52 29.40 +20 30 04.5 19.9   704 – Lincoln Laboratory ETS, New Mexico MPS 174490
2001 11 21.32175 04 52 28.64 +20 30 02.4 20.2   704 – Lincoln Laboratory ETS, New Mexico MPS 174490
2001 11 21.33634 04 52 27.78 +20 30 00.8 20.0   704 – Lincoln Laboratory ETS, New Mexico MPS 174490
2005 09 30.34325 02 38 39.48 +15 34 57.8 20.5 V G96 – Mt. Lemmon Survey MPS 144420
2005 09 30.34992 02 38 39.26 +15 34 57.0 20.2 V G96 – Mt. Lemmon Survey MPS 144420
2005 09 30.35659 02 38 39.08 +15 34 55.6 20.3 V G96 – Mt. Lemmon Survey MPS 144420
2005 09 30.36329 02 38 38.90 +15 34 54.2 20.4 V G96 – Mt. Lemmon Survey MPS 144420
2005 10 05.41807 02 36 01.75 +15 17 49.9 20.2 V 691 – Steward Observatory, Kitt Peak-Spacewatch MPS 144420
2005 10 05.43541 02 36 01.10 +15 17 45.8 20.3 V 691 – Steward Observatory, Kitt Peak-Spacewatch MPS 144420
2005 10 05.45276 02 36 00.49 +15 17 41.8 20.3 V 691 – Steward Observatory, Kitt Peak-Spacewatch MPS 144420
2005 10 12.48467 02 31 21.45 +14 48 33.7 20.2 V 691 – Steward Observatory, Kitt Peak-Spacewatch MPS 146219
2005 10 12.50206 02 31 20.68 +14 48 29.1 20.0 V 691 – Steward Observatory, Kitt Peak-Spacewatch MPS 146219
2005 10 12.51945 02 31 19.87 +14 48 24.0 20.6 V 691 – Steward Observatory, Kitt Peak-Spacewatch MPS 146219
2005 10 22.16442 02 23 33.77 +14 00 29.1 20.0 V 691 – Steward Observatory, Kitt Peak-Spacewatch MPS 146219
2005 10 22.18174 02 23 32.87 +14 00 23.7 19.9 V 691 – Steward Observatory, Kitt Peak-Spacewatch MPS 146219
2005 10 22.19899 02 23 31.94 +14 00 18.3 20.1 V 691 – Steward Observatory, Kitt Peak-Spacewatch MPS 146219
2005 10 23.40057 02 22 28.81 +13 53 54.6 20.3 V 703 – Catalina Sky Survey MPS 146219
2005 10 23.41016 02 22 28.38 +13 53 49.0 18.7 V 703 – Catalina Sky Survey MPS 146219
2005 10 23.41983 02 22 27.87 +13 53 46.6 19.1 V 703 – Catalina Sky Survey MPS 146219
2005 10 23.42956 02 22 27.30 +13 53 43.6 20.1 V 703 – Catalina Sky Survey MPS 146219
2005 10 27.19432 02 19 08.45 +13 33 11.2 19.8 V 691 – Steward Observatory, Kitt Peak-Spacewatch MPS 146219
2005 10 27.21496 02 19 07.34 +13 33 04.4 19.8 V 691 – Steward Observatory, Kitt Peak-Spacewatch MPS 146219
2005 10 27.23223 02 19 06.38 +13 32 58.6 19.7 V 691 – Steward Observatory, Kitt Peak-Spacewatch MPS 146219
2005 10 30.24627 02 16 25.35 +13 16 18.0 19.5 V 703 – Catalina Sky Survey MPS 147606
2005 10 30.25086 02 16 25.06 +13 16 16.8 19.3 V 703 – Catalina Sky Survey MPS 147606
2005 10 30.25544 02 16 24.92 +13 16 15.6 19.1 V 703 – Catalina Sky Survey MPS 147606
2005 10 30.26001 02 16 24.63 +13 16 14.3 19.8 V 703 – Catalina Sky Survey MPS 147606
2005 10 31.16705 02 15 36.44 +13 11 11.4 19.8 V 691 – Steward Observatory, Kitt Peak-Spacewatch MPS 147606
2005 10 31.18438 02 15 35.49 +13 11 05.8 19.7 V 691 – Steward Observatory, Kitt Peak-Spacewatch MPS 147606
2005 10 31.20163 02 15 34.53 +13 11 00.0 19.7 V 691 – Steward Observatory, Kitt Peak-Spacewatch MPS 147606
2005 11 04.362987 02 11 55.338 +12 48 06.34 20.03 V 645 – Apache Point-Sloan Digital Sky Survey MPS 390316
2005 11 04.366459 02 11 55.152 +12 48 05.24 20.87   645 – Apache Point-Sloan Digital Sky Survey MPS 390316
2005 11 25.27426 01 57 18.82 +11 12 39.7 20.3 V G96 – Mt. Lemmon Survey MPS 152169
2005 11 25.28123 01 57 18.64 +11 12 37.9 20.3 V G96 – Mt. Lemmon Survey MPS 152169
2005 11 25.28825 01 57 18.43 +11 12 36.7 20.3 V G96 – Mt. Lemmon Survey MPS 152169
2005 11 25.29529 01 57 18.21 +11 12 35.1 20.3 V G96 – Mt. Lemmon Survey MPS 152169
2005 12 01.07381 01 55 00.23 +10 56 06.6 20.6 V 691 – Steward Observatory, Kitt Peak-Spacewatch MPS 152169
2005 12 01.09496 01 54 59.82 +10 56 03.5 20.6 V 691 – Steward Observatory, Kitt Peak-Spacewatch MPS 152169
2005 12 01.11605 01 54 59.39 +10 56 00.5 20.6 V 691 – Steward Observatory, Kitt Peak-Spacewatch MPS 152169
2005 12 02.19048 01 54 39.60 +10 53 32.1 20.5 V G96 – Mt. Lemmon Survey MPS 153732
2005 12 02.19629 01 54 39.49 +10 53 31.5 20.6 V G96 – Mt. Lemmon Survey MPS 153732
2005 12 02.20210 01 54 39.38 +10 53 30.5 20.1 V G96 – Mt. Lemmon Survey MPS 153732
2005 12 02.20806 01 54 39.27 +10 53 29.8 20.4 V G96 – Mt. Lemmon Survey MPS 153732
2005 12 04.21358 01 54 07.88 +10 49 25.3 20.4 V G96 – Mt. Lemmon Survey MPS 153732
2005 12 04.22128 01 54 07.77 +10 49 24.6 20.2 V G96 – Mt. Lemmon Survey MPS 153732
2005 12 04.22896 01 54 07.63 +10 49 23.8 20.2 V G96 – Mt. Lemmon Survey MPS 153732
2005 12 04.23664 01 54 07.52 +10 49 23.0 20.4 V G96 – Mt. Lemmon Survey MPS 153732
2006 01 28.13692 02 19 51.85 +12 47 45.0 21.0 V G96 – Mt. Lemmon Survey MPS 161827
2006 01 28.14241 02 19 52.14 +12 47 46.5 21.9 V G96 – Mt. Lemmon Survey MPS 161827
2006 01 28.14788 02 19 52.46 +12 47 49.0 21.7 V G96 – Mt. Lemmon Survey MPS 161827
2006 01 28.15337 02 19 52.78 +12 47 50.9 21.5 V G96 – Mt. Lemmon Survey MPS 161827
2007 01 29.40987 10 08 52.73 +08 25 56.9 20.9 V 691 – Steward Observatory, Kitt Peak-Spacewatch MPS 198157
2007 01 29.42774 10 08 51.91 +08 26 01.0 20.9 V 691 – Steward Observatory, Kitt Peak-Spacewatch MPS 198157
2007 01 29.44559 10 08 51.08 +08 26 05.0 21.1 V 691 – Steward Observatory, Kitt Peak-Spacewatch MPS 198157
2007 02 08.21004 10 00 55.58 +09 09 01.3   691 – Steward Observatory, Kitt Peak-Spacewatch MPS 198720
2007 02 08.22015 10 00 55.05 +09 09 04.3   691 – Steward Observatory, Kitt Peak-Spacewatch MPS 198720
2007 02 08.23027 10 00 54.49 +09 09 07.1   691 – Steward Observatory, Kitt Peak-Spacewatch MPS 198720
2007 02 26.16419 09 45 06.40 +10 39 13.4 20.9 V G96 – Mt. Lemmon Survey MPS 201528
2007 02 26.17102 09 45 06.04 +10 39 14.6 20.9 V G96 – Mt. Lemmon Survey MPS 201528
2007 02 26.17772 09 45 05.65 +10 39 16.8 21.8 V G96 – Mt. Lemmon Survey MPS 201528
2007 02 26.18451 09 45 05.29 +10 39 18.6 21.2 V G96 – Mt. Lemmon Survey MPS 201528
2007 03 16.12963 09 32 26.39 +11 57 37.7 21.1 V 691 – Steward Observatory, Kitt Peak-Spacewatch MPS 203088
2007 03 16.15123 09 32 25.67 +11 57 42.4 21.2 V 691 – Steward Observatory, Kitt Peak-Spacewatch MPS 203088
2007 03 16.17283 09 32 24.95 +11 57 47.1 21.6 V 691 – Steward Observatory, Kitt Peak-Spacewatch MPS 203088
2008 05 28.28288 15 32 29.22 -17 31 40.2 20.4 V G96 – Mt. Lemmon Survey MPS 250431
2008 05 28.28870 15 32 28.89 -17 31 39.2 20.6 V G96 – Mt. Lemmon Survey MPS 250431
2008 05 28.29455 15 32 28.60 -17 31 37.9 20.3 V G96 – Mt. Lemmon Survey MPS 250431
2008 05 28.30042 15 32 28.21 -17 31 36.5 20.6 V G96 – Mt. Lemmon Survey MPS 250431
2008 05 31.26877 15 29 55.47 -17 21 09.0 20.8 V 691 – Steward Observatory, Kitt Peak-Spacewatch MPS 250956
2008 05 31.28640 15 29 54.53 -17 21 05.3 21.0 V 691 – Steward Observatory, Kitt Peak-Spacewatch MPS 250956
2008 05 31.30405 15 29 53.60 -17 21 01.9 20.6 V 691 – Steward Observatory, Kitt Peak-Spacewatch MPS 250956
2009 09 14.26207 23 57 43.46 +01 51 09.0 20.3   704 – Lincoln Laboratory ETS, New Mexico MPS 295008
2009 09 14.27381 23 57 42.92 +01 51 04.9 20.1   704 – Lincoln Laboratory ETS, New Mexico MPS 295008
2009 09 14.28552 23 57 42.21 +01 51 01.0 20.2   704 – Lincoln Laboratory ETS, New Mexico MPS 295008
2009 09 14.29723 23 57 41.68 +01 50 56.2 19.9   704 – Lincoln Laboratory ETS, New Mexico MPS 295008
2009 09 16.36817 23 56 02.61 +01 38 33.4 19.7 V G96 – Mt. Lemmon Survey MPS 295008
2009 09 16.37504 23 56 02.29 +01 38 30.9 19.7 V G96 – Mt. Lemmon Survey MPS 295008
2009 09 16.38200 23 56 01.93 +01 38 28.6 19.3 V G96 – Mt. Lemmon Survey MPS 295008
2009 09 16.38974 23 56 01.57 +01 38 25.6 19.7 V G96 – Mt. Lemmon Survey MPS 295008
